Location: Sommers-Bausch Observatory
(40.0037°N, 105.2635°W)
Time: 03:46:38
(UTC-06:00)

Daily predictions for brighter satellites

Satellite Brightness Start Highest point End
(mag) Time Altitude Azimuth Time Altitude Azimuth Time Altitude Azimuth
Cosmos 2360 Rocket 4.1 00:14:22 24° NNE 00:14:22 24° NNE 00:16:31 10° NNE
Cosmos 2263 Rocket 4.5 00:36:35 10° NW 00:38:03 17° NW 00:38:03 17° NW
Cosmos 2322 Rocket 4.4 00:42:06 19° NW 00:42:06 19° NW 00:45:42 10° N
Cosmos 2278 Rocket 4.1 01:17:55 10° NNW 01:20:23 26° N 01:20:23 26° N
COSMOS 2455 4.2 01:54:24 35° NNE 01:54:24 35° NNE 01:57:45 10° NNE
CZ-4C R/B 3.9 02:13:58 26° ENE 02:13:58 26° ENE 02:16:46 10° NE
Cosmos 2219 Rocket 4.0 02:19:19 25° NNW 02:19:19 25° NNW 02:22:17 10° N
Cosmos 2333 Rocket 3.8 02:27:46 29° NNW 02:27:46 29° NNW 02:31:10 10° N
SL-16 R/B 3.4 02:28:18 38° NNE 02:28:18 38° NNE 02:31:45 10° NNE
ATLAS 3B R/B 3.3 02:27:45 57° NNW 02:27:45 57° NNW 02:34:29 10° NNE
Cosmos 2237 Rocket 3.7 02:34:13 29° NNW 02:34:13 29° NNW 02:37:35 10° N
CZ-3A R/B 4.2 02:32:23 45° SE 02:34:29 50° ESE 03:12:28 10° NE
SL-16 R/B 4.3 02:34:24 18° ESE 02:37:34 27° ENE 02:42:36 10° N
Resurs 1-4 Rocket 4.0 02:44:31 10° NE 02:48:30 21° E 02:48:33 21° E
ARIANE 5 R/B 4.1 02:46:57 10° NE 02:50:57 28° E 02:50:57 28° E
Cosmos 1553 Rocket 4.2 03:02:41 66° ENE 03:02:41 66° ENE 03:08:20 10° NNE
Cosmos 1745 Rocket 4.3 03:00:29 10° N 03:06:48 61° E 03:07:21 59° ESE
Cosmos 1603 4.1 03:09:23 61° NE 03:09:23 61° NE 03:14:09 10° NNE
ATLAS 5 CENTAUR R/B 4.3 03:09:30 13° ESE 03:09:35 13° ESE 03:11:49 10° E
ATLAS CENTAUR R/B 3.8 03:12:05 10° N 03:15:33 22° NE 03:18:46 10° E
USA 238 DEB 4.0 03:15:31 56° WNW 03:15:44 56° NW 03:22:41 10° NNE
USA 238 4.0 03:15:37 56° WNW 03:15:50 56° NW 03:22:47 10° NNE
USA 234 3.1 03:10:31 10° NE 03:17:06 82° SE 03:17:15 81° SSE
SL-08 R/B 4.4 03:13:22 10° N 03:19:04 78° N 03:19:04 78° N
Cosmos 158 Rocket 4.5 03:21:26 55° NE 03:21:26 55° NE 03:25:26 10° NNE
Cosmos 2251 Rocket 4.2 03:21:42 47° E 03:21:42 47° E 03:26:28 10° NNE
NOSS 3-2 (A) 3.3 03:32:17 84° SSW 03:32:30 90° SE 03:39:08 10° NE
Cosmos 1707 Rocket 4.3 03:36:44 52° NNE 03:36:44 52° NNE 03:40:14 10° NNE
Cosmos 1943 3.5 03:39:49 55° SE 03:40:26 59° ESE 03:46:00 10° NNE
Cosmos 1726 3.9 03:44:38 28° N 03:44:38 28° N 03:46:30 10° N
CZ-2D R/B 2.1 03:42:22 10° NNE 03:47:40 74° ESE 03:48:11 68° SSE
NOSS 3-2 (C) 3.3 03:47:18 70° SW 03:48:06 88° WNW 03:54:46 10° NE
Cosmos 883 Rocket 4.4 03:49:38 56° S 03:51:01 83° E 03:57:11 10° N
Cosmos 2369 Rocket 2.5 03:47:16 10° NNW 03:52:52 64° ENE 03:58:25 10° SSE
Cosmos 1455 3.6 03:54:29 33° ESE 03:54:55 34° E 03:58:29 10° NNE
CENTAUR R/B 4.1 03:51:52 18° SSE 03:55:02 27° ESE 04:00:25 10° NE
Okean O Rocket 3.4 03:51:49 10° NE 03:55:40 28° E 03:57:46 19° SE
Cosmos 2315 Rocket 4.2 03:55:53 34° SSE 03:58:37 68° E 04:04:50 10° NNE
Cosmos 1271 Rocket 4.4 04:00:38 27° NNW 04:00:38 27° NNW 04:02:49 10° N
CZ-4C R/B 3.3 03:59:09 30° WNW 03:59:57 31° NW 04:05:19 10° NNE
Cosmos 839 Rocket 4.2 04:00:08 10° NNW 04:08:19 80° WSW 04:14:52 10° SSE
Cosmos 494 Rocket 3.9 04:09:18 62° SW 04:10:12 82° WNW 04:15:30 10° NNE
SL-16 R/B 4.1 04:10:11 15° WNW 04:10:56 15° NW 04:14:09 10° NNW
Cosmos 389 Rocket 4.3 04:13:58 22° SE 04:15:14 28° E 04:18:16 10° NNE
IRS-1D 3.8 04:12:04 10° N 04:17:04 48° WNW 04:17:38 46° W
CZ-2D R/B 3.6 04:13:24 10° NNE 04:17:50 80° ESE 04:18:47 54° S
Cosmos 1302 Rocket 4.1 04:14:08 10° NNW 04:19:24 75° ENE 04:24:36 10° SSE
SL-16 R/B 2.7 04:19:30 42° SW 04:20:51 49° W 04:26:50 10° NNW
Cosmos 2263 4.3 04:16:32 10° NNW 04:22:22 81° ENE 04:28:09 10° SSE
Cosmos 2292 Rocket 4.0 04:20:08 10° N 04:21:50 32° NNW 04:21:50 32° NNW
Cosmos 1943 Rocket 3.2 04:17:46 10° NNW 04:23:16 48° ENE 04:28:42 10° SE
PSLV R/B 3.5 04:23:39 71° ENE 04:23:39 71° ENE 04:26:46 10° E
MOZ.5/SAFIR/RUBIN 5/SL-8 4.2 04:20:36 10° SSE 04:25:09 61° ENE 04:29:44 10° N
CZ-4B R/B 4.0 04:24:07 10° NNE 04:27:31 36° E 04:29:49 18° SSE
Resurs 1-4 Rocket 2.5 04:23:31 10° N 04:28:32 46° WNW 04:29:37 40° WSW
ERS-2 4.1 04:26:18 10° NNW 04:27:57 18° NW 04:27:57 18° NW
Cosmos 2242 Rocket 3.8 04:28:45 50° WSW 04:29:16 54° W 04:33:47 10° N
ARIANE 5 R/B 3.3 04:25:53 10° N 04:30:34 34° WNW 04:31:17 33° W
EO 1 Del DPAF 3.9 04:34:03 39° WNW 04:34:03 39° WNW 04:37:03 10° NNW
UNKNOWN OBJECT B 3.1 04:31:16 10° N 04:34:38 43° WNW 04:34:38 43° WNW
Cosmos 1825 4.2 04:31:48 10° NNE 04:35:11 29° ENE 04:38:31 10° SE
Cosmos 1331 Rocket 4.3 04:30:48 10° NNW 04:35:48 44° WSW 04:37:17 35° SW
Meteor 2-11 Rocket 4.4 04:34:24 27° SSW 04:37:50 71° W 04:43:55 10° N
Cosmos 1869 3.2 04:36:34 40° S 04:37:57 89° W 04:41:58 10° N
MOS 1-B 4.5 04:34:09 10° N 04:39:48 55° WNW 04:42:26 31° SW
Cosmos 1408 4.4 04:36:40 10° NNE 04:40:05 33° ENE 04:43:29 10° SE
Cosmos 1184 Rocket 2.9 04:37:52 10° N 04:41:17 78° E 04:43:31 20° SSE
Cosmos 1862 Rocket 3.4 04:42:22 31° SSW 04:44:23 77° W 04:48:48 10° N
ADEOS II 3.7 04:41:46 10° NNE 04:46:28 33° E 04:51:09 10° SSE
BREEZE-M DEB (TANK) 4.5 04:46:46 15° W 04:51:12 26° NW 04:54:14 10° NNE
SeaSat 1 2.5 04:48:10 10° S 04:52:58 52° WSW 04:57:48 10° NW
ATLAS 5 CENTAUR R/B 1.8 04:51:04 30° SW 04:53:28 72° NW 04:58:40 10° NNE
Cosmos 1709 Rocket 4.4 04:48:03 10° NNW 04:53:58 42° W 04:58:27 17° SSW
ATLAS CENTAUR R/B 1.7 04:50:50 10° NW 04:54:48 38° WSW 04:58:26 10° S
Thor Agena Rocket 3.7 04:51:42 10° SSE 04:56:48 76° ENE 05:02:00 10° N
Atlas Centaur 2 4.2 04:57:06 10° SSE 04:58:12 11° SSE 04:59:20 10° SE
Cosmos 1892 3.8 04:55:20 10° NNW 04:58:22 26° W 04:58:22 26° W
USA 234 4.3 04:53:52 10° NE 04:59:41 35° NNW 05:04:35 14° W
BREEZE-M DEB (TANK) 3.8 05:01:52 24° S 05:03:00 38° SE 05:06:56 10° ENE
IRS-1C Rocket 4.2 04:59:10 10° N 05:04:19 56° WNW 05:08:17 17° SW
Okean 1-7 4.4 05:01:23 10° SSE 05:05:23 40° E 05:09:26 10° NNE
USA 32 4.2 05:03:57 10° S 05:09:11 78° E 05:14:26 10° N
SL-27 R/B 2.4 05:07:21 18° SSW 05:09:56 81° WNW 05:13:36 10° NNE
Cosmos 1733 Rocket 3.8 05:08:49 10° NNW 05:12:44 33° W 05:15:54 14° SSW
Cosmos 2074 Rocket 4.0 05:09:16 10° NNW 05:15:27 67° W 05:21:36 10° S
Cosmos 2184 Rocket 4.0 05:10:57 10° NNW 05:17:17 68° W 05:23:34 10° S
Cosmos 1992 Rocket 4.2 05:12:02 10° NNW 05:17:17 76° ENE 05:22:31 10° SSE
COSMOS 2406 3.3 05:11:53 10° SSW 05:17:40 87° ESE 05:23:27 10° NNE
Cosmos 2327 Rocket 4.4 05:11:50 10° NNW 05:17:52 66° W 05:23:57 10° S
Cosmos 1782 Rocket 3.9 05:14:30 10° N 05:18:51 70° E 05:23:08 10° SSE
Pageos (A) 4.1 05:22:12 10° NW 05:24:01 24° W 05:24:10 23° W
CZ-2D R/B 3.9 05:24:19 10° NNW 05:27:04 14° WNW 05:29:30 11° W
BREEZE-M DEB (TANK) 4.2 05:25:20 10° WNW 05:29:32 63° SW 05:41:39 10° SE
Cosmos 1455 4.1 05:29:33 13° W 05:30:46 15° WNW 05:33:04 10° NW
Okean O Rocket 2.8 05:28:14 10° NNW 05:31:57 26° WNW 05:35:14 12° WSW
Cosmos 2221 Rocket 3.6 05:29:03 10° SSW 05:33:28 65° W 05:37:52 10° N
Okean-O 2.6 05:29:15 10° N 05:33:42 78° WNW 05:38:08 10° SSW
Cosmos 2369 Rocket 3.6 05:32:52 10° WNW 05:36:15 17° W 05:39:40 10° SW
CZ-4B R/B 3.7 05:31:44 10° N 05:36:37 38° WNW 05:41:26 10° SW
Meteor PRIRODA 3.6 05:34:53 10° N 05:38:39 85° WNW 05:42:24 10° SSW
Cosmos 1908 Rocket 4.1 05:35:32 10° NNW 05:39:36 38° W 05:43:37 10° SSW
Abrixas rocket 4.5 05:38:25 10° NW 05:41:08 23° NNE 05:43:52 10° ENE
CENTAUR R/B 2.9 05:39:12 10° SW 05:45:11 53° NW 05:51:57 10° NNE
ADEOS Rocket 3.6 05:37:40 10° N 05:45:20 72° WNW 05:53:01 10° SSW
Cosmos 2285 Rocket 4.1 05:39:41 10° NNW 05:45:58 58° WSW 05:52:11 10° S
Aureole 3 Rocket 4.1 05:40:30 10° SSW 05:48:00 59° W 05:53:22 10° N
Cosmos 389 Rocket 4.4 05:48:19 10° WSW 05:50:13 14° WNW 05:52:10 10° NW
Meteor 1-31 Rocket 2.7 05:50:13 10° NNE 05:54:02 90° ESE 05:57:51 10° SSW
